This demonstration page uses our WeatherBlox Daily Observations layout. Learn more.

Left ArrowRight Arrow

36.17497, -115.13722

Hourly Observations for June 30, 2019

Temp ( °F °C ) Dew Point ( °F °C ) Humidity (%) Winds ( mph kmh ) Pressure ( in mb ) Visibility ( mi km ) Precip ( " mm )
12:53 am 00:53 Clear 88 31.1 17 -8.3 7 7 SW 9 15 29.86 1011 10 16 0.00 0.00
1:53 am 01:53 Clear 89 31.7 15 -9.4 6 6 WSW 7 11 29.86 1011 10 16 0.00 0.00
2:53 am 02:53 Clear 85 29.4 18 -7.8 8 8 SSE 10 17 29.86 1011 10 16 0.00 0.00
3:53 am 03:53 Clear 86 30 19 -7.2 8 8 SW 6 9 29.86 1011 10 16 0.00 0.00
4:53 am 04:53 Clear 85 29.4 19 -7.2 9 9 Calm 29.87 1012 10 16 0.00 0.00
5:53 am 05:53 Partly Cloudy 84 28.9 20 -6.7 9 9 E 3 6 29.89 1012 10 16 0.00 0.00
6:53 am 06:53 Mostly Cloudy 83 28.3 24 -4.4 11 11 SSE 8 13 29.92 1013 10 16 0.00 0.00
7:53 am 07:53 Mostly Cloudy with Light Rain 82 27.8 36 2.2 19 19 Calm 29.94 1014 10 16 0.00 0.03
8:53 am 08:53 Cloudy 85 29.4 30 -1.1 14 14 W 9 15 29.99 1016 10 16 0.00 0.03
9:53 am 09:53 Cloudy 86 30 39 3.9 19 19 WNW 12 19 29.94 1014 10 16 0.00 0.00
10:53 am 10:53 Mostly Cloudy 86 30 42 5.6 21 21 S 7 11 29.96 1015 10 16 0.00 0.00
11:53 am 11:53 Sunny 90 32.2 38 3.3 16 16 VRB 6 9 29.95 1014 10 16 0.00 0.00
12:53 pm 12:53 Sunny 92 33.3 39 3.9 16 16 ESE 6 9 29.92 1013 10 16 0.00 0.00
1:53 pm 13:53 Sunny 95 35 40 4.4 15 15 E 10 17 29.89 1012 10 16 0.00 0.00
2:53 pm 14:53 Sunny 96 35.6 39 3.9 14 14 ENE 7 11 29.87 1012 10 16 0.00 0.00
3:53 pm 15:53 Sunny 97 36.1 37 2.8 12 12 SE 9 15 29.84 1011 10 16 0.00 0.00
4:53 pm 16:53 Sunny 99 37.2 35 1.7 11 11 E 9 15 29.81 1009 10 16 0.00 0.00
5:53 pm 17:53 Sunny 99 37.2 34 1.1 10 10 SE 10 17 29.79 1009 10 16 0.00 0.00
6:53 pm 18:53 Sunny 98 36.7 34 1.1 11 11 SSE 7 11 29.80 1009 10 16 0.00 0.00
7:53 pm 19:53 Sunny 97 36.1 25 -3.9 7 7 W 9 15 29.81 1009 10 16 0.00 0.00
8:53 pm 20:53 Clear 95 35 24 -4.4 8 8 WSW 7 11 29.83 1010 10 16 0.00 0.00
9:53 pm 21:53 Clear 92 33.3 23 -5 8 8 W 6 9 29.85 1011 10 16 0.00 0.00
10:53 pm 22:53 Clear 91 32.8 22 -5.6 8 8 W 5 7 29.85 1011 10 16 0.00 0.00
11:53 pm 23:53 Clear 87 30.6 25 -3.9 10 10 S 7 11 29.85 1011 10 16 0.00 0.00

Powered by AerisWeather